Location: Erraguntapalli
(18.7700°N, 79.7783°E)
Time: 10:43:17
(UTC+00:00)

ASTRO E2 - Pass Details

Date: 15 November 2019
Orbit: 511 x 517 km, 31.4° (Epoch: 08 December)

Event Time Altitude Azimuth Distance (km) Brightness Sun altitude
Exits shadow 00:17:32 - 275° (W) 1,797 4.8 -7.6°
Reaches altitude 10° 00:17:46 10° 273° (W) 1,717 4.7 -7.5°
Maximum altitude 00:21:14 29° 212° (SSW) 938 3.9 -6.7°
Drops below altitude 10° 00:24:43 10° 150° (SSE) 1,713 6.1 -6.0°
Sets 00:27:07 0° 139° (SE) 2,596 7.4 -5.4°
